User: anonymous   Login
Location: Unspecified
(0.0000°N, 0.0000°E)
Time: 17:53:02
(UTC+01:00)
Language:

Cosmos 2263 Rocket - Orbit

View from above orbital plane
View from above orbital plane
View from above satellite
View from above satellite

Ground track
Ground track

The orbit data is extracted from the following two-line orbital elements,

1 22803U 93059B   16039.49678894  .00000104  00000-0  75817-4 0  9992
2 22803  70.9885 211.8339 0015283  54.6314 305.6235 14.16735093158213
Epoch (UTC): 08 February 2016 11:55:22
Eccentricity: 0.0015283
inclination: 70.9885°
perigee height: 825 km
apogee height: 847 km
right ascension of ascending node: 211.8339°
argument of perigee: 54.6314°
revolutions per day: 14.16735093
mean anomaly at epoch: 305.6235°
orbit number at epoch: 15821

The dashed part of the orbit path shows where the satellite is in the earth's shadow,  

DLR